Jackson Hole, USA 16 day weather forecast

Slopes altitude range 1925 m - 3185m

Number of lifts: 12 Pistes: 116km

In some cases the lift and piste totals shown are for the ski domain (e.g. Three Valleys) rather than individual resort (e.g. Courchevel)

Overview

The 16 day weather forecast is fully updated 4 times every day.

    • Sun 25 FEB 2018
    • Sun 25
    • -14C -12C
    • Mon 26 FEB 2018
    • Mon 26
    • -12C -11C
    • Tue 27 FEB 2018
    • Tue 27
    • -20C -17C
    • Wed 28 FEB 2018
    • Wed 28
    • -17C -15C
    • Thu 01 MAR 2018
    • Thu 01
    • -17C -13C
    • Fri 02 MAR 2018
    • Fri 02
    • -9C -8C
    • Sat 03 MAR 2018
    • Sat 03
    • -17C -15C
    • Sun 04 MAR 2018
    • Sun 04
    • -20C -19C
    • Mon 05 MAR 2018
    • Mon 05
    • -18C -16C
    • Tue 06 MAR 2018
    • Tue 06
    • -18C -17C
    • Wed 07 MAR 2018
    • Wed 07
    • -16C -9C
    • Thu 08 MAR 2018
    • Thu 08
    • -12C -5C
    • Fri 09 MAR 2018
    • Fri 09
    • -4C -2C
    • Sat 10 MAR 2018
    • Sat 10
    • -4C 0C
    • Sun 11 MAR 2018
    • Sun 11
    • -11C -5C
    • Mon 12 MAR 2018
    • Mon 12
    • -16C -8C

Date:

Time Type 0°C level Temp Chill Snow Cloud Speed Gust Dir Press
3:00 326m -13°C -13_5 2cm 100% 5mph 10mph 1019mB
6:00 275m -14°C -14_4 3cm 100% 4mph 7mph 1020mB
9:00 438m -14°C -14_4 1cm 100% 4mph 9mph 1022mB
12:00 274m -12°C -12_5 2cm 100% 5mph 7mph 1024mB
15:00 72m -14°C -14_6 1cm 100% 6mph 15mph 1027mB
18:00 495m -12°C -12_8 1cm 100% 8mph 18mph 1025mB
21:00 738m -12°C -12_8 1cm 100% 8mph 17mph 1022mB
0:00 779m -12°C -12_8 2cm 100% 8mph 19mph 1021mB
3:00 545m -12°C -12_8 1cm 100% 8mph 25mph 1022mB
6:00 473m -12°C -12_8 2cm 100% 8mph 16mph 1020mB
9:00 536m -12°C -12_8 1cm 100% 8mph 17mph 1017mB
12:00 682m -11°C -11_8 4cm 100% 8mph 24mph 1014mB
15:00 903m -9°C -9_7 3cm 100% 7mph 18mph 1013mB
18:00 1167m -8°C -8_7 5cm 100% 7mph 14mph 1013mB
21:00 1280m -8°C -8_6 2cm 100% 6mph 14mph 1013mB
0:00 1155m -8°C -8_5 4cm 100% 5mph 11mph 1016mB
3:00 480m -12°C -12_2 1cm 100% 2mph 2mph 1021mB
6:00 0m -17°C -17_2 0cm 96% 2mph 2mph 1024mB
9:00 0m -19°C -19_3 0cm 71% 3mph 3mph 1027mB
12:00 0m -17°C -17_3 0cm 37% 3mph 3mph 1028mB
15:00 0m -18°C -18_3 0cm 1% 3mph 4mph 1029mB
18:00 1184m -8°C -8_2 0cm 0% 2mph 3mph 1023mB
21:00 1481m -8°C -8_5 0cm 1% 5mph 9mph 1019mB
0:00 1170m -8°C -8_4 0cm 4% 4mph 6mph 1019mB
3:00 0m -16°C -16_2 0cm 51% 2mph 3mph 1024mB
6:00 0m -16°C -16_2 0cm 75% 2mph 2mph 1025mB
9:00 0m -16°C -16_2 0cm 100% 2mph 2mph 1025mB
12:00 0m -15°C -15_2 1cm 100% 2mph 2mph 1026mB
15:00 0m -18°C -18_2 0cm 59% 2mph 2mph 1028mB
18:00 860m -10°C -10_4 0cm 48% 4mph 5mph 1024mB
21:00 1211m -10°C -10_5 1cm 99% 5mph 7mph 1021mB
0:00 1085m -10°C -10_4 1cm 100% 4mph 7mph 1021mB
3:00 74m -15°C -15_4 0cm 99% 4mph 5mph 1025mB
6:00 0m -17°C -17_4 0cm 99% 4mph 5mph 1025mB
9:00 0m -17°C -17_4 0cm 100% 4mph 5mph 1023mB
12:00 273m -13°C -13_5 1cm 100% 5mph 9mph 1020mB
15:00 654m -11°C -11_5 1cm 100% 5mph 8mph 1018mB
18:00 1389m -6°C -6_6 2cm 100% 6mph 11mph 1013mB
21:00 1698m -6°C -6_7 1cm 100% 7mph 12mph 1009mB
0:00 1600m -6°C -6_6 3cm 100% 6mph 11mph 1007mB
3:00 1157m -8°C -8_5 1cm 100% 5mph 8mph 1007mB
6:00 974m -9°C -9_4 3cm 100% 4mph 7mph 1005mB
9:00 1009m -9°C -9_4 2cm 100% 4mph 7mph 1003mB
12:00 1166m -8°C -8_2 5cm 100% 2mph 3mph 1001mB
15:00 1041m -8°C -8_6 2cm 100% 6mph 11mph 1003mB
18:00 1154m -8°C -8_7 3cm 100% 7mph 14mph 1005mB
21:00 1002m -9°C -9_10 2cm 100% 10mph 21mph 1006mB
0:00 849m -10°C -10_8 2cm 100% 8mph 18mph 1010mB
3:00 476m -12°C -12_8 1cm 100% 8mph 23mph 1014mB
6:00 108m -15°C -15_7 1cm 100% 7mph 26mph 1018mB
9:00 0m -16°C -16_6 1cm 100% 6mph 24mph 1021mB
12:00 0m -15°C -15_4 1cm 100% 4mph 9mph 1024mB
15:00 0m -17°C -17_4 1cm 100% 4mph 6mph 1026mB
18:00 635m -11°C -11_5 1cm 100% 5mph 10mph 1024mB
21:00 908m -11°C -11_6 1cm 100% 6mph 11mph 1023mB
0:00 754m -11°C -11_4 1cm 100% 4mph 9mph 1024mB
3:00 0m -17°C -17_1 1cm 100% 1mph 2mph 1030mB
6:00 0m -20°C -20_2 1cm 99% 2mph 2mph 1033mB
9:00 0m -20°C -20_2 1cm 100% 2mph 3mph 1035mB
12:00 0m -19°C -19_2 1cm 100% 2mph 3mph 1037mB
15:00 0m -17°C -17_3 1cm 67% 3mph 4mph 1037mB
18:00 451m -11°C -11_5 1cm 73% 5mph 9mph 1033mB
21:00 599m -11°C -11_8 1cm 86% 8mph 12mph 1031mB
0:00 348m -12°C -12_6 1cm 87% 6mph 11mph 1032mB
3:00 0m -16°C -16_2 1cm 85% 2mph 3mph 1038mB
6:00 0m -17°C -17_3 1cm 81% 3mph 4mph 1041mB
9:00 0m -17°C -17_3 1cm 82% 3mph 5mph 1042mB
12:00 0m -16°C -16_4 1cm 81% 4mph 5mph 1043mB
15:00 0m -17°C -17_4 0cm 62% 4mph 5mph 1043mB
18:00 659m -10°C -10_5 0cm 53% 5mph 9mph 1036mB
21:00 892m -10°C -10_7 0cm 79% 7mph 11mph 1031mB
0:00 724m -10°C -10_5 0cm 85% 5mph 11mph 1030mB
3:00 0m -17°C -17_3 0cm 25% 3mph 4mph 1035mB
6:00 0m -17°C -17_4 0cm 24% 4mph 5mph 1035mB
9:00 0m -18°C -18_4 0cm 28% 4mph 5mph 1035mB
12:00 0m -17°C -17_4 0cm 51% 4mph 5mph 1034mB
15:00 0m -14°C -14_4 0cm 79% 4mph 4mph 1033mB
18:00 878m -8°C -8_6 0cm 72% 6mph 13mph 1027mB
21:00 1102m -8°C -8_7 0cm 39% 7mph 13mph 1023mB
0:00 925m -8°C -8_5 0cm 51% 5mph 13mph 1023mB
Afternoon 0.00520833mm 0 0m -9°C -9_5 0cm 75% 5mph 6mph 1031mB
Morning 0mm 0 1461m -17°C -17_4 0cm 28% 4mph 9mph 1021mB
Afternoon 0mm 0 490m -5°C -5_7 0cm 54% 7mph 7mph 1023mB
Morning 0.0729167mm 0 1889m -11°C -11_7 1cm 94% 7mph 16mph 1013mB
Afternoon 0.1875mm 0 1795m -2°C -2_7 2cm 98% 7mph 17mph 1018mB
Morning 0.302083mm 0.75 2209m -3°C -3_8 6cm 94% 8mph 19mph 1011mB
Afternoon 0.208333mm 0.5625 1715m 0°C 0_8 4cm 91% 8mph 19mph 1009mB
Morning 0.239583mm 0.5 1443m -5°C -5_10 4cm 100% 10mph 19mph 1009mB
Afternoon 0.270833mm 0.0625 523m -5°C -5_6 2cm 100% 6mph 12mph 1026mB
Morning 0.119792mm 0.3125 1021m -12°C -12_8 2cm 90% 8mph 13mph 1030mB
Afternoon 0.03125mm 0 0m -8°C -8_5 1cm 73% 5mph 6mph 1038mB
Morning 0.0625mm 0.0625 1290m -16°C -16_6 1cm 88% 6mph 12mph 1027mB

16 day outlook at a glance

Forecast issued: 25/02/2018 07:19:40

Chat

Your comments and questions. In a resort? Let us know what it's like!


Characters left 250

For terms and conditions see Readers Comments on the Cookie and privacy policy page.